Location: Church Tower
(37.7144°N, 119.6316°W)
Time: 20:37:21
(UTC+00:00)

USA 267 - Pass Details

Date: 15 November 2025
Orbit: 1100 x 1108 km, 123.0° (Epoch: 21 November)

Event Time Altitude Azimuth Distance (km) Brightness Sun altitude
Rises 14:01:38 0° 41° (NE) 3,922 6.5 -7.8°
Reaches altitude 10° 14:04:40 10° 27° (NNE) 2,962 5.7 -7.2°
Maximum altitude 14:09:29 23° 339° (NNW) 2,164 4.5 -6.3°
Drops below altitude 10° 14:14:18 10° 291° (WNW) 2,956 4.8 -5.4°
Enters shadow 14:15:36 - 284° (WNW) 3,345 5.1 -5.2°
